Location: Cestre
(47.4343°N, 4.7989°E)
Time: 07:36:29
(UTC+00:00)

Daily predictions for brighter satellites

Satellite Brightness Start Highest point End
(mag) Time Altitude Azimuth Time Altitude Azimuth Time Altitude Azimuth
H-2A R/B 2.8 16:27:03 10° SSE 16:30:51 85° WSW 16:34:44 10° NNW
Cosmos 1570 Rocket 4.1 16:26:41 10° SSW 16:32:00 89° ESE 16:37:19 10° NNE
Abrixas rocket 2.5 16:30:01 10° W 16:32:43 53° SSW 16:35:26 10° ESE
Cosmos 1500 Rocket 3.6 16:28:40 10° N 16:33:01 57° ENE 16:37:21 10° SSE
Meteor 2-2 Rocket 4.4 16:29:24 10° S 16:35:17 65° E 16:41:07 10° NNE
YAOGAN 6 2.6 16:32:06 10° SSE 16:35:42 61° ENE 16:39:19 10° N
CZ-4C R/B 3.0 16:35:11 10° NNE 16:38:48 71° ESE 16:42:25 10° S
NOSS 2-1 (C) 4.4 16:33:53 10° NW 16:38:54 89° NE 16:46:02 10° SE
Cosmos 405 Rocket 2.7 16:37:22 10° N 16:41:14 63° ENE 16:45:09 10° SSE
ADEOS Rocket 3.7 16:36:10 10° NNE 16:43:51 89° ESE 16:51:39 10° SSW
NOSS 2-1 (D) 4.4 16:39:20 10° NW 16:44:23 85° SW 16:51:33 10° SE
Cosmos 372 Rocket 4.5 16:40:21 10° NNW 16:45:28 66° WSW 16:50:35 10° S
Cosmos 405 3.0 16:42:39 10° SSW 16:46:09 80° WNW 16:49:38 10° N
Cosmos 1943 Rocket 3.5 16:42:22 10° N 16:46:13 19° NE 16:50:04 10° E
YAOGAN 1 4.4 16:44:39 10° E 16:46:21 12° ENE 16:48:03 10° NE
Cosmos 389 Rocket 3.8 16:44:22 10° SE 16:46:53 19° E 16:49:22 10° NE
Cosmos 44 4.5 16:45:00 10° NNW 16:49:26 27° NE 16:53:58 10° E
H-2A R/B 2.8 16:46:36 10° S 16:50:58 76° WSW 16:55:11 10° NNW
BREEZE-M DEB (TANK) 1.7 16:49:08 10° WSW 16:51:25 61° SSE 16:53:03 15° ENE
Cosmos 2322 Rocket 4.3 16:47:39 10° W 16:51:43 20° NW 16:55:48 10° N
SL-16 R/B 3.5 16:49:56 10° SE 16:53:48 19° E 16:56:52 13° ENE
USA 215 3.7 16:47:51 10° ENE 16:54:05 45° SE 17:00:19 10° SSW
Cosmos 1743 Rocket 3.7 16:50:51 10° N 16:55:22 83° W 16:59:49 10° S
NOAA 6 4.5 16:50:25 10° S 16:55:33 69° WSW 17:00:43 10° NNW
COSMO-SKYMED 1 3.9 16:52:24 10° NE 16:55:40 20° E 16:58:55 10° SE
CZ-2C R/B 4.2 16:52:48 10° ESE 16:56:25 20° ENE 16:59:55 10° NNE
Cosmos 2298 Rocket 4.1 16:51:47 10° NNW 16:57:07 84° WSW 17:02:26 10° SSE
Okean-O 4.0 16:54:39 10° ESE 16:57:40 18° ENE 17:00:41 10° NNE
Cosmos 2150 Rocket 4.0 16:53:20 10° NNW 16:58:32 87° WSW 17:03:40 10° SSE
Cosmos 1818 3.6 16:54:25 10° NW 16:59:56 88° ENE 17:05:24 10° SE
AQUARIUS 4.1 16:57:09 10° SSE 17:01:38 76° ENE 17:06:08 10° N
Cosmos 1606 3.3 17:00:51 10° SSE 17:04:27 36° E 17:08:03 10° NNE
Sich 1 3.2 17:00:13 10° N 17:04:30 47° ENE 17:08:43 10° SSE
BREEZE-M TANK 4.3 16:59:18 10° W 17:05:39 38° SSW 17:08:50 10° SE
Okean O Rocket 1.6 17:04:17 10° SSE 17:08:38 90° NW 17:13:02 10° NNW
Cosmos 2333 Rocket 3.2 17:03:42 10° SW 17:09:08 45° NW 17:14:36 10° NNE
Helios 1A Rocket 4.1 17:07:32 11° ESE 17:10:14 21° ENE 17:13:15 10° NNE
ISS -3.6 17:08:20 10° SW 17:11:40 62° SSE 17:13:33 23° ENE
Nadezhda 1 Rocket 4.1 17:05:41 10° S 17:12:01 90° W 17:18:27 10° N
Cosmos 1125 Rocket 3.5 17:08:06 10° NNW 17:13:20 89° ENE 17:18:34 10° SSE
Cosmos 1356 3.6 17:10:55 10° N 17:14:15 45° ENE 17:17:32 10° SSE
COSMOS 2428 3.5 17:09:01 10° SW 17:14:36 51° WNW 17:20:12 10° NNE
Cosmos 1805 Rocket 3.5 17:10:58 10° N 17:15:27 82° ENE 17:19:55 10° S
Feng Yun 1-1 Rocket 4.4 17:10:53 10° SE 17:16:34 57° ENE 17:22:07 10° N
CZ-4B R/B 1.3 17:17:15 17° NNE 17:19:21 49° E 17:22:21 10° S
Cosmos 2278 Rocket 2.8 17:14:55 10° NNW 17:20:31 60° WSW 17:26:05 10° S
Cosmos 1666 Rocket 3.8 17:17:24 10° N 17:21:39 46° ENE 17:25:54 10° SSE
Cosmos 1151 Rocket 3.8 17:18:03 10° SSE 17:21:44 28° E 17:23:24 22° NE
Cosmos 2154 Rocket 4.4 17:18:27 10° NNW 17:24:45 69° W 17:31:02 10° S
CRYOSAT 2 4.5 17:20:20 10° N 17:25:15 80° W 17:30:08 10° S
IRS-1C Rocket 4.2 17:20:53 10° SE 17:25:59 52° ENE 17:31:07 10° N
Cosmos 962 Rocket 4.4 17:21:05 10° N 17:27:25 80° E 17:33:39 10° SSE
Cosmos 1328 Rocket 4.3 17:23:56 10° SSE 17:27:38 29° E 17:28:38 26° ENE
USA 267 3.3 17:21:44 12° ESE 17:27:46 68° NNE 17:34:15 10° NW
Lacrosse 5 rocket 2.9 17:26:03 10° SSE 17:28:08 16° SE 17:28:08 16° SE
ERS-2 2.0 17:29:45 15° NNE 17:32:42 67° ESE 17:36:21 10° S
Cosmos 2360 Rocket 4.4 17:29:02 10° W 17:32:44 17° NW 17:36:25 10° N
Cosmos 2341 Rocket 3.9 17:27:27 10° N 17:33:46 80° E 17:40:05 10° SSE
SL-24 R/B 4.3 17:32:45 26° NE 17:34:21 38° E 17:37:54 10° SSE
Meteor 1-25 Rocket 4.2 17:28:57 10° N 17:34:28 55° ENE 17:40:00 10° SSE
NOSS 0 Rocket 4.2 17:28:15 10° SW 17:34:29 71° WNW 17:40:44 10° NNE
CZ-2D R/B 3.4 17:31:56 10° SE 17:35:35 47° ENE 17:39:18 10° N
CZ-4 R/B 1.8 17:38:23 35° E 17:38:54 37° ENE 17:42:36 10° N
Cosmos 2219 Rocket 3.8 17:35:20 10° WSW 17:40:19 31° NW 17:45:18 10° NNE
H-2A R/B 3.5 17:37:06 10° N 17:40:56 37° WNW 17:44:49 10° SW
TELKOM 3 3.5 17:39:11 10° WSW 17:41:32 52° S 17:41:32 52° S
BREEZE-M DEB (TANK) 2.4 17:41:14 10° SW 17:43:13 42° S 17:43:13 42° S
CZ-4B R/B 4.4 17:38:42 10° S 17:43:45 42° W 17:48:48 10° NNW
SKYMED 2 3.5 17:40:45 17° NNE 17:44:03 61° ESE 17:48:20 10° S
USA 81 3.9 17:40:08 10° N 17:45:25 68° E 17:50:40 10° SSE
CREW DRAGON DEMO-1 DEB 2.6 17:44:47 10° WNW 17:47:43 76° N 17:47:43 76° N
Cosmos 2285 Rocket 4.0 17:42:23 10° NNW 17:48:47 64° ENE 17:55:05 10° SE
Cosmos 2237 Rocket 2.5 17:43:51 10° SW 17:49:26 66° WNW 17:54:26 13° NNE
Cosmos 1939 Rocket 2.8 17:47:24 10° S 17:51:16 80° W 17:55:11 10° NNW
Cosmos 1633 Rocket 2.9 17:48:00 10° N 17:52:25 79° E 17:56:46 10° SSE
H-2A R/B 2.4 17:52:26 30° ESE 17:54:25 41° ENE 17:59:17 10° N
SL-8 Rocket 3.9 17:51:41 10° N 17:57:56 90° W 18:04:13 10° S
Cosmos 864 Rocket 4.4 17:51:37 10° N 17:57:58 73° E 18:04:13 10° SSE
Cosmos 773 Rocket 4.3 17:53:36 10° S 17:58:34 45° ESE 17:59:15 42° E
Cosmos 2369 Rocket 2.7 17:56:56 10° NNW 18:02:10 36° NE 18:02:10 36° NE
CSL-04 Rocket 3.9 18:01:44 42° E 18:02:13 43° ENE 18:07:15 10° N
USA 281 3.1 17:55:44 10° SSE 18:02:18 82° ENE 18:08:54 10° NNW
Cosmos 783 Rocket 4.4 17:59:48 10° S 18:05:04 70° ESE 18:07:11 37° NE
Cosmos 2181 Rocket 4.0 17:58:43 10° S 18:05:11 88° E 18:11:36 10° N
MOS 1 Rocket 3.7 18:03:47 38° NE 18:05:25 51° E 18:10:42 10° S
Cosmos 1959 Rocket 4.5 18:00:38 10° N 18:07:02 87° E 18:13:23 10° S
Cosmos 1821 Rocket 4.2 18:05:43 10° N 18:11:29 43° ENE 18:11:29 43° ENE
Cosmos 1241 Rocket 4.5 18:07:28 10° NW 18:14:07 76° NE 18:17:23 32° SE
YAOGAN 1 2.4 18:21:23 74° SSE 18:21:47 89° W 18:26:08 10° NNW
SL-08 R/B 4.3 18:20:29 10° N 18:26:41 78° E 18:32:47 10° SSE
Cosmos 2297 4.1 18:22:08 10° NNW 18:27:45 64° WSW 18:33:22 10° SSE
Cosmos 1933 4.4 18:23:56 10° SSW 18:27:48 44° WNW 18:29:42 26° NNW
Cosmos 1470 Rocket 3.6 18:23:28 10° NNW 18:27:22 69° NW 18:27:22 69° NW
Cosmos 1943 Rocket 2.0 18:25:15 10° NNW 18:30:50 84° ENE 18:31:41 65° SE
Meteor 1-14 Rocket 4.2 18:25:10 10° N 18:31:08 86° E 18:37:07 10° S
Cosmos 44 3.6 18:25:54 10° NW 18:31:11 74° SW 18:32:40 48° SSE
COSMO-SKYMED 1 3.6 18:29:20 20° N 18:32:03 44° WNW 18:36:10 10° SW
Okean-O 3.2 18:29:22 10° S 18:33:44 58° W 18:38:07 10° NNW
CZ-2C R/B 3.3 18:30:46 10° S 18:35:53 63° WSW 18:40:48 10° NNW
Cosmos 1867 3.8 18:31:28 10° SW 18:36:52 65° NW 18:37:58 52° N
ARGOS 3.7 18:38:31 46° N 18:38:31 46° N 18:42:21 10° N
SL-16 R/B 2.3 18:31:37 10° SSW 18:37:16 74° WNW 18:38:47 49° N
USA 215 3.4 18:35:13 45° NE 18:37:19 69° NNW 18:43:49 10° WSW
Helios 1A Rocket 4.1 18:43:48 30° SW 18:45:09 40° W 18:48:58 10° NNW
ISS -1.0 18:45:21 10° W 18:46:31 19° WNW 18:46:31 19° WNW
Lacrosse 5 rocket 4.0 19:03:22 10° WSW 19:03:47 13° WSW 19:03:47 13° WSW
USA 267 4.0 19:09:07 38° S 19:10:59 47° SW 19:17:15 10° WNW
CZ-4 R/B 3.8 19:14:25 20° W 19:14:25 20° W 19:17:05 10° NW
H-2A R/B 3.7 19:33:03 29° WSW 19:33:55 31° W 19:38:32 10° NNW
Cosmos 2369 Rocket 3.9 19:40:59 10° NW 19:43:59 29° WNW 19:43:59 29° WNW
